| time (UTC) | temp F | wind direction | speed MPH | gust MPH | rain 1hr in | rain 24hr in | rain mn in | humidity % | barometer mb |
| 20260508034542 | 54 | 0 | 0.0 | 3.0 | 0.00 | 0.43 | 0.43 | 91 | 1012.9 |
| 20260508033035 | 54 | 135 | 0.0 | 2.0 | 0.00 | 0.43 | 0.43 | 91 | 1012.6 |
| 20260508031536 | 54 | 0 | 0.0 | 2.0 | 0.00 | 0.43 | 0.43 | 91 | 1012.6 |
| 20260508030051 | 54 | 69 | 1.0 | 3.0 | 0.00 | 0.43 | 0.43 | 91 | 1012.3 |
| 20260508024544 | 54 | 69 | 1.0 | 4.0 | 0.00 | 0.43 | 0.43 | 90 | 1012.3 |
| 20260508023044 | 54 | 117 | 0.0 | 3.0 | 0.00 | 0.43 | 0.43 | 90 | 1012.0 |
| 20260508021541 | 54 | 0 | 0.0 | 1.0 | 0.00 | 0.43 | 0.43 | 90 | 1012.0 |
| 20260508020036 | 54 | 139 | 0.0 | 2.0 | 0.00 | 0.43 | 0.43 | 90 | 1011.8 |
| 20260508014543 | 54 | 0 | 0.0 | 5.0 | 0.00 | 0.43 | 0.43 | 90 | 1011.6 |
| 20260508013041 | 54 | 153 | 2.0 | 4.0 | 0.00 | 0.43 | 0.43 | 89 | 1011.0 |
| 20260508011543 | 54 | 141 | 2.0 | 6.0 | 0.00 | 0.43 | 0.43 | 89 | 1010.9 |
| 20260508010042 | 54 | 111 | 0.0 | 4.0 | 0.00 | 0.43 | 0.43 | 88 | 1011.3 |
| 20260508004534 | 54 | 0 | 0.0 | 4.0 | 0.00 | 0.43 | 0.43 | 88 | 1010.9 |
| 20260508003042 | 54 | 153 | 1.0 | 4.0 | 0.00 | 0.43 | 0.43 | 88 | 1010.7 |
| 20260508001546 | 54 | 99 | 3.0 | 8.0 | 0.00 | 0.43 | 0.43 | 89 | 1010.8 |
| 20260508000037 | 55 | 113 | 3.0 | 9.0 | 0.00 | 0.43 | 0.43 | 88 | 1010.3 |
| 20260507234547 | 55 | 165 | 4.0 | 9.0 | 0.00 | 0.43 | 0.43 | 87 | 1010.1 |
| 20260507233036 | 55 | 208 | 3.0 | 10.0 | 0.00 | 0.43 | 0.43 | 87 | 1009.9 |
| 20260507231535 | 55 | 173 | 2.0 | 8.0 | 0.00 | 0.43 | 0.43 | 88 | 1009.8 |
| 20260507230043 | 54 | 127 | 6.0 | 11.0 | 0.00 | 0.43 | 0.43 | 89 | 1009.9 |
| 20260507224541 | 54 | 137 | 8.0 | 14.0 | 0.00 | 0.43 | 0.43 | 89 | 1009.5 |
| 20260507223040 | 54 | 125 | 8.0 | 14.0 | 0.00 | 0.43 | 0.43 | 89 | 1009.5 |
| 20260507221535 | 55 | 141 | 5.0 | 9.0 | 0.00 | 0.43 | 0.43 | 90 | 1009.4 |
| 20260507220043 | 55 | 86 | 4.0 | 10.0 | 0.00 | 0.43 | 0.43 | 90 | 1009.7 |
| 20260507214541 | 55 | 134 | 6.0 | 9.0 | 0.00 | 0.43 | 0.43 | 88 | 1009.5 |
| 20260507213041 | 55 | 103 | 3.0 | 10.0 | 0.00 | 0.43 | 0.43 | 89 | 1009.4 |
| 20260507211537 | 54 | 115 | 7.0 | 13.0 | 0.00 | 0.43 | 0.43 | 88 | 1009.5 |
| 20260507210036 | 54 | 154 | 6.0 | 14.0 | 0.00 | 0.43 | 0.43 | 90 | 1009.4 |
| 20260507204540 | 54 | 136 | 7.0 | 14.0 | 0.00 | 0.43 | 0.43 | 89 | 1009.2 |
| 20260507203041 | 55 | 108 | 8.0 | 17.0 | 0.00 | 0.43 | 0.43 | 90 | 1009.1 |
| 20260507201546 | 56 | 120 | 6.0 | 13.0 | 0.00 | 0.43 | 0.43 | 90 | 1008.8 |
| 20260507200039 | 56 | 132 | 8.0 | 15.0 | 0.00 | 0.43 | 0.43 | 91 | 1008.9 |
| 20260507194545 | 56 | 118 | 3.0 | 12.0 | 0.00 | 0.50 | 0.43 | 92 | 1008.9 |
| 20260507193044 | 56 | 130 | 6.0 | 15.0 | 0.00 | 0.50 | 0.43 | 91 | 1008.8 |
| 20260507191556 | 56 | 120 | 3.0 | 15.0 | 0.00 | 0.50 | 0.43 | 91 | 1009.0 |
| 20260507190042 | 57 | 144 | 6.0 | 13.0 | 0.00 | 0.50 | 0.43 | 91 | 1008.9 |
| 20260507184539 | 57 | 158 | 7.0 | 16.0 | 0.01 | 0.56 | 0.43 | 91 | 1008.2 |
| 20260507183042 | 57 | 107 | 5.0 | 13.0 | 0.03 | 0.56 | 0.43 | 91 | 1009.0 |
| 20260507181543 | 58 | 138 | 4.0 | 16.0 | 0.04 | 0.56 | 0.43 | 91 | 1008.3 |
| 20260507180034 | 59 | 84 | 9.0 | 15.0 | 0.04 | 0.56 | 0.43 | 90 | 1008.2 |
| 20260507174544 | 61 | 130 | 8.0 | 17.0 | 0.03 | 0.55 | 0.42 | 90 | 1008.9 |
| 20260507173051 | 66 | 74 | 8.0 | 15.0 | 0.01 | 0.52 | 0.40 | 87 | 1008.3 |
| 20260507171536 | 67 | 110 | 4.0 | 12.0 | 0.00 | 0.52 | 0.39 | 86 | 1007.7 |
| 20260507170045 | 70 | 0 | 0.0 | 4.0 | 0.01 | 0.52 | 0.39 | 88 | 1007.3 |
| 20260507164555 | 70 | 0 | 0.0 | 5.0 | 0.01 | 0.52 | 0.39 | 89 | 1007.6 |
| 20260507163042 | 69 | 46 | 0.0 | 6.0 | 0.02 | 0.52 | 0.39 | 90 | 1008.4 |
| 20260507161542 | 69 | 271 | 2.0 | 7.0 | 0.02 | 0.52 | 0.39 | 91 | 1008.8 |
| 20260507160047 | 69 | 320 | 2.0 | 6.0 | 0.01 | 0.51 | 0.38 | 90 | 1009.0 |
| 20260507154544 | 69 | 35 | 1.0 | 4.0 | 0.02 | 0.51 | 0.38 | 89 | 1008.8 |
| 20260507153042 | 69 | 0 | 0.0 | 4.0 | 0.02 | 0.50 | 0.37 | 90 | 1008.2 |
| 20260507151542 | 69 | 296 | 1.0 | 7.0 | 0.03 | 0.50 | 0.37 | 90 | 1008.6 |
| 20260507150039 | 68 | 346 | 1.0 | 7.0 | 0.04 | 0.50 | 0.37 | 90 | 1008.6 |
| 20260507144537 | 69 | 334 | 2.0 | 6.0 | 0.06 | 0.49 | 0.36 | 90 | 1008.9 |
| 20260507143057 | 68 | 331 | 1.0 | 7.0 | 0.09 | 0.48 | 0.35 | 92 | 1009.1 |
| 20260507141600 | 68 | 275 | 3.0 | 7.0 | 0.10 | 0.47 | 0.34 | 89 | 1008.9 |
| 20260507140039 | 68 | 298 | 2.0 | 4.0 | 0.10 | 0.46 | 0.33 | 93 | 1009.0 |
| 20260507134535 | 68 | 57 | 1.0 | 8.0 | 0.08 | 0.43 | 0.30 | 90 | 1009.4 |
| 20260507133043 | 69 | 292 | 1.0 | 8.0 | 0.04 | 0.39 | 0.26 | 92 | 1009.2 |
| 20260507131552 | 68 | 15 | 1.0 | 6.0 | 0.02 | 0.37 | 0.24 | 90 | 1009.3 |
| 20260507130045 | 68 | 288 | 1.0 | 7.0 | 0.01 | 0.36 | 0.23 | 89 | 1009.4 |
| 20260507124539 | 68 | 309 | 2.0 | 9.0 | 0.00 | 0.35 | 0.22 | 89 | 1009.5 |
| 20260507123050 | 69 | 319 | 3.0 | 8.0 | 0.01 | 0.35 | 0.22 | 91 | 1009.5 |
| 20260507121543 | 68 | 292 | 2.0 | 5.0 | 0.02 | 0.35 | 0.22 | 90 | 1009.3 |
| 20260507120041 | 68 | 330 | 4.0 | 11.0 | 0.02 | 0.35 | 0.22 | 90 | 1009.6 |
| 20260507114536 | 67 | 288 | 4.0 | 8.0 | 0.02 | 0.35 | 0.22 | 90 | 1009.7 |
| 20260507113045 | 68 | 323 | 3.0 | 8.0 | 0.01 | 0.34 | 0.21 | 93 | 1009.9 |
| 20260507111543 | 67 | 311 | 3.0 | 11.0 | 0.01 | 0.33 | 0.20 | 90 | 1009.9 |
| 20260507110046 | 68 | 352 | 2.0 | 11.0 | 0.01 | 0.33 | 0.20 | 91 | 1009.9 |
| 20260507104543 | 67 | 317 | 4.0 | 11.0 | 0.02 | 0.33 | 0.20 | 90 | 1009.3 |
| 20260507103039 | 67 | 337 | 3.0 | 9.0 | 0.02 | 0.33 | 0.20 | 91 | 1009.6 |
| 20260507101537 | 67 | 305 | 3.0 | 8.0 | 0.01 | 0.32 | 0.19 | 93 | 1009.3 |
| 20260507100054 | 65 | 324 | 2.0 | 9.0 | 0.02 | 0.32 | 0.19 | 92 | 1009.4 |
| 20260507094549 | 65 | 303 | 0.0 | 4.0 | 0.01 | 0.31 | 0.18 | 92 | 1009.4 |
| 20260507093040 | 65 | 0 | 2.0 | 7.0 | 0.01 | 0.31 | 0.18 | 92 | 1009.5 |
| 20260507091541 | 65 | 301 | 1.0 | 4.0 | 0.01 | 0.31 | 0.18 | 92 | 1009.5 |
| 20260507090044 | 65 | 296 | 0.0 | 3.0 | 0.01 | 0.30 | 0.17 | 92 | 1009.6 |
| 20260507084539 | 64 | 321 | 1.0 | 4.0 | 0.03 | 0.30 | 0.17 | 92 | 1009.8 |
| 20260507083043 | 64 | 0 | 1.0 | 5.0 | 0.05 | 0.30 | 0.17 | 92 | 1010.0 |
| 20260507081551 | 65 | 269 | 1.0 | 5.0 | 0.05 | 0.30 | 0.17 | 92 | 1010.3 |
| 20260507080038 | 65 | 230 | 0.0 | 2.0 | 0.04 | 0.29 | 0.16 | 92 | 1009.8 |
| 20260507074538 | 65 | 269 | 1.0 | 3.0 | 0.02 | 0.27 | 0.14 | 92 | 1009.8 |
| 20260507073044 | 65 | 0 | 1.0 | 4.0 | 0.00 | 0.25 | 0.12 | 92 | 1010.9 |
| 20260507071536 | 65 | 298 | 1.0 | 3.0 | 0.00 | 0.25 | 0.12 | 91 | 1010.6 |
| 20260507070044 | 65 | 0 | 1.0 | 4.0 | 0.00 | 0.25 | 0.12 | 92 | 1010.2 |
| 20260507064601 | 65 | 0 | 1.0 | 3.0 | 0.00 | 0.25 | 0.12 | 91 | 1010.8 |
| 20260507063041 | 65 | 297 | 3.0 | 7.0 | 0.00 | 0.25 | 0.12 | 91 | 1011.2 |
| 20260507061536 | 65 | 300 | 2.0 | 6.0 | 0.01 | 0.25 | 0.12 | 91 | 1011.0 |
| 20260507060106 | 65 | 0 | 0.0 | 0.0 | 0.04 | 0.25 | 0.12 | 91 | 1011.8 |
| 20260507054548 | 65 | 0 | 0.0 | 3.0 | 0.06 | 0.25 | 0.12 | 90 | 1011.7 |
| 20260507053041 | 65 | 317 | 1.0 | 7.0 | 0.08 | 0.25 | 0.12 | 90 | 1010.6 |
| 20260507051559 | 66 | 0 | 0.0 | 10.0 | 0.09 | 0.24 | 0.11 | 89 | 1010.7 |
| 20260507050048 | 66 | 288 | 4.0 | 10.0 | 0.08 | 0.21 | 0.08 | 88 | 1011.9 |
| 20260507044543 | 67 | 0 | 4.0 | 15.0 | 0.06 | 0.19 | 0.06 | 87 | 1012.6 |
| 20260507043043 | 68 | 35 | 2.0 | 11.0 | 0.03 | 0.16 | 0.03 | 85 | 1012.9 |
| 20260507041540 | 69 | 61 | 0.0 | 9.0 | 0.02 | 0.15 | 0.02 | 81 | 1012.8 |
| 20260507040046 | 70 | 0 | 2.0 | 9.0 | 0.00 | 0.13 | 0.00 | 78 | 1012.3 |